| time (UTC) | temp F | wind direction | speed knots | gust knots | rain 1hr in | rain 24hr in | rain mn in | humidity % | barometer mb |
| 20260507093044 | 48 | 42 | 3.5 | 7.0 | 0.00 | 0.00 | 0.15 | 99 | 1008.2 |
| 20260507092055 | 48 | 51 | 4.3 | 8.7 | 0.00 | 0.00 | 0.15 | 99 | 1008.2 |
| 20260507091037 | 49 | 51 | 5.2 | 7.8 | 0.00 | 0.00 | 0.15 | 99 | 1008.2 |
| 20260507090047 | 48 | 51 | 4.3 | 8.7 | 0.00 | 0.00 | 0.15 | 99 | 1008.3 |
| 20260507084047 | 47 | 47 | 5.2 | 10.4 | 0.00 | 0.00 | 0.15 | 99 | 1008.0 |
| 20260507083042 | 47 | 65 | 3.5 | 7.8 | 0.00 | 0.00 | 0.15 | 99 | 1007.9 |
| 20260507081051 | 47 | 51 | 3.5 | 7.0 | 0.00 | 0.00 | 0.15 | 99 | 1007.7 |
| 20260507074051 | 47 | 47 | 4.3 | 7.8 | 0.00 | 0.00 | 0.15 | 99 | 1007.3 |
| 20260507073049 | 47 | 44 | 5.2 | 8.7 | 0.00 | 0.00 | 0.15 | 99 | 1007.3 |
| 20260507072052 | 47 | 49 | 4.3 | 8.7 | 0.00 | 0.00 | 0.15 | 99 | 1007.3 |
| 20260507071051 | 47 | 51 | 5.2 | 9.6 | 0.00 | 0.00 | 0.15 | 99 | 1007.1 |
| 20260507070047 | 46 | 45 | 5.2 | 10.4 | 0.00 | 0.00 | 0.15 | 99 | 1006.6 |
| 20260507065054 | 46 | 42 | 4.3 | 8.7 | 0.01 | 0.00 | 0.15 | 99 | 1006.6 |
| 20260507062041 | 47 | 40 | 3.5 | 7.0 | 0.01 | 0.00 | 0.15 | 99 | 1006.6 |
| 20260507061036 | 46 | 48 | 4.3 | 8.7 | 0.01 | 0.00 | 0.15 | 99 | 1006.6 |
| 20260507060040 | 46 | 44 | 4.3 | 7.8 | 0.01 | 0.00 | 0.15 | 99 | 1006.3 |
| 20260507054044 | 46 | 17 | 4.3 | 11.3 | 0.00 | 0.00 | 0.15 | 99 | 1006.0 |
| 20260507053039 | 46 | 41 | 3.5 | 8.7 | 0.00 | 0.00 | 0.15 | 99 | 1006.0 |
| 20260507052042 | 46 | 47 | 3.5 | 6.1 | 0.00 | 0.00 | 0.15 | 99 | 1006.0 |
| 20260507051044 | 45 | 41 | 2.6 | 5.2 | 0.00 | 0.00 | 0.15 | 99 | 1005.6 |
| 20260507050041 | 45 | 41 | 3.5 | 7.8 | 0.00 | 0.00 | 0.15 | 99 | 1005.6 |
| 20260507044036 | 45 | 39 | 3.5 | 7.8 | 0.00 | 0.00 | 0.15 | 99 | 1004.9 |
| 20260507043041 | 45 | 41 | 3.5 | 7.0 | 0.01 | 0.00 | 0.15 | 99 | 1004.9 |
| 20260507042045 | 45 | 39 | 1.7 | 3.5 | 0.02 | 0.00 | 0.15 | 99 | 1004.9 |
| 20260507040050 | 45 | 39 | 3.5 | 7.0 | 0.03 | 0.00 | 0.15 | 99 | 1004.9 |
| 20260507035051 | 45 | 41 | 3.5 | 7.8 | 0.04 | 0.00 | 0.15 | 99 | 1004.9 |
| 20260507034039 | 45 | 51 | 4.3 | 7.8 | 0.06 | 0.00 | 0.15 | 99 | 1005.0 |
| 20260507033050 | 46 | 39 | 3.5 | 7.0 | 0.04 | 0.00 | 0.13 | 99 | 1004.8 |
| 20260507032046 | 46 | 43 | 3.5 | 9.6 | 0.04 | 0.00 | 0.12 | 99 | 1004.8 |
| 20260507030055 | 46 | 40 | 5.2 | 9.6 | 0.04 | 0.00 | 0.11 | 99 | 1004.6 |
| 20260507025047 | 46 | 50 | 3.5 | 7.0 | 0.04 | 0.00 | 0.10 | 99 | 1004.5 |
| 20260507024047 | 46 | 46 | 3.5 | 6.1 | 0.06 | 0.00 | 0.09 | 99 | 1004.5 |
| 20260507023040 | 46 | 49 | 4.3 | 8.7 | 0.06 | 0.00 | 0.09 | 99 | 1004.4 |
| 20260507022037 | 47 | 19 | 4.3 | 9.6 | 0.06 | 0.00 | 0.08 | 99 | 1004.4 |
| 20260507021043 | 47 | 19 | 3.5 | 7.0 | 0.05 | 0.00 | 0.07 | 99 | 1004.4 |
| 20260507015044 | 47 | 19 | 3.5 | 7.8 | 0.06 | 0.00 | 0.06 | 99 | 1004.2 |
| 20260507013039 | 48 | 20 | 2.6 | 7.0 | 0.02 | 0.00 | 0.03 | 99 | 1004.0 |
| 20260507012038 | 48 | 29 | 2.6 | 7.8 | 0.02 | 0.00 | 0.02 | 99 | 1003.8 |
| 20260507010044 | 48 | 18 | 2.6 | 6.1 | 0.02 | 0.00 | 0.02 | 99 | 1003.8 |
| 20260507005032 | 48 | 47 | 2.6 | 5.2 | 0.02 | 0.00 | 0.01 | 99 | 1003.8 |
| 20260507004030 | 48 | 23 | 2.6 | 7.0 | 0.02 | 0.00 | 0.01 | 99 | 1003.6 |
| 20260507003043 | 48 | 19 | 3.5 | 7.8 | 0.02 | 0.00 | 0.01 | 99 | 1003.5 |
| 20260507001047 | 48 | 27 | 2.6 | 5.2 | 0.01 | 0.00 | 0.00 | 99 | 1003.5 |
| 20260507000048 | 48 | 19 | 3.5 | 9.6 | 0.01 | 0.00 | 0.01 | 99 | 1003.4 |
| 20260506235041 | 48 | 19 | 2.6 | 7.0 | 0.00 | 0.00 | 0.79 | 99 | 1003.5 |
| 20260506234044 | 48 | 23 | 3.5 | 7.8 | 0.00 | 0.00 | 0.79 | 99 | 1003.3 |
| 20260506233045 | 48 | 46 | 3.5 | 8.7 | 0.00 | 0.00 | 0.79 | 99 | 1003.2 |
| 20260506232035 | 48 | 20 | 3.5 | 8.7 | 0.00 | 0.00 | 0.79 | 99 | 1003.3 |
| 20260506231050 | 48 | 26 | 3.5 | 8.7 | 0.00 | 0.00 | 0.79 | 99 | 1003.1 |
| 20260506230041 | 48 | 48 | 3.5 | 7.0 | 0.00 | 0.00 | 0.79 | 99 | 1003.1 |
| 20260506225052 | 48 | 44 | 3.5 | 7.0 | 0.00 | 0.00 | 0.79 | 99 | 1003.1 |
| 20260506223044 | 48 | 41 | 4.3 | 8.7 | 0.00 | 0.00 | 0.79 | 99 | 1003.1 |
| 20260506222039 | 48 | 27 | 4.3 | 7.8 | 0.00 | 0.00 | 0.79 | 99 | 1002.8 |
| 20260506220047 | 48 | 24 | 4.3 | 8.7 | 0.01 | 0.00 | 0.79 | 99 | 1002.9 |
| 20260506215039 | 48 | 45 | 3.5 | 9.6 | 0.01 | 0.00 | 0.79 | 99 | 1002.9 |
| 20260506214042 | 48 | 28 | 3.5 | 7.8 | 0.02 | 0.00 | 0.79 | 99 | 1002.7 |
| 20260506213046 | 48 | 18 | 3.5 | 7.0 | 0.03 | 0.00 | 0.79 | 99 | 1002.7 |
| 20260506212044 | 49 | 18 | 4.3 | 8.7 | 0.04 | 0.00 | 0.79 | 99 | 1002.6 |
| 20260506211038 | 49 | 47 | 4.3 | 9.6 | 0.04 | 0.00 | 0.78 | 99 | 1002.5 |
| 20260506210051 | 49 | 48 | 4.3 | 7.8 | 0.05 | 0.00 | 0.78 | 99 | 1002.5 |
| 20260506204045 | 50 | 25 | 3.5 | 9.6 | 0.06 | 0.00 | 0.77 | 99 | 1002.4 |
| 20260506202048 | 50 | 19 | 4.3 | 8.7 | 0.06 | 0.00 | 0.75 | 99 | 1002.4 |
| 20260506201037 | 51 | 4 | 1.7 | 4.3 | 0.05 | 0.00 | 0.74 | 99 | 1002.3 |
| 20260506200052 | 50 | 19 | 0.9 | 2.6 | 0.04 | 0.00 | 0.73 | 99 | 1001.9 |
| 20260506195046 | 50 | 49 | 3.5 | 9.6 | 0.04 | 0.00 | 0.72 | 99 | 1001.9 |
| 20260506194039 | 51 | 41 | 3.5 | 6.1 | 0.04 | 0.00 | 0.71 | 99 | 1001.6 |
| 20260506193040 | 51 | 22 | 1.7 | 4.3 | 0.03 | 0.00 | 0.70 | 99 | 1001.6 |
| 20260506192038 | 51 | 26 | 2.6 | 6.1 | 0.02 | 0.00 | 0.69 | 99 | 1001.6 |
| 20260506191042 | 51 | 26 | 2.6 | 5.2 | 0.02 | 0.00 | 0.69 | 99 | 1001.6 |
| 20260506185035 | 51 | 44 | 2.6 | 7.0 | 0.02 | 0.00 | 0.68 | 99 | 1001.1 |
| 20260506183038 | 51 | 25 | 2.6 | 5.2 | 0.01 | 0.00 | 0.67 | 99 | 1001.0 |
| 20260506182051 | 51 | 25 | 2.6 | 5.2 | 0.02 | 0.00 | 0.67 | 99 | 1001.0 |
| 20260506181052 | 51 | 27 | 1.7 | 5.2 | 0.02 | 0.00 | 0.67 | 99 | 1001.0 |
| 20260506180053 | 51 | 355 | 0.0 | 2.6 | 0.01 | 0.00 | 0.66 | 99 | 1001.2 |
| 20260506173052 | 51 | 43 | 2.6 | 6.1 | 0.01 | 0.00 | 0.66 | 99 | 1000.9 |
| 20260506172048 | 51 | 23 | 2.6 | 5.2 | 0.00 | 0.00 | 0.65 | 99 | 1000.8 |
| 20260506170054 | 51 | 47 | 1.7 | 4.3 | 0.00 | 0.00 | 0.65 | 99 | 1000.8 |
| 20260506165052 | 51 | 24 | 0.9 | 4.3 | 0.01 | 0.00 | 0.65 | 99 | 1000.7 |
| 20260506164049 | 51 | 27 | 1.7 | 5.2 | 0.02 | 0.00 | 0.65 | 99 | 1000.7 |
| 20260506163040 | 51 | 23 | 1.7 | 5.2 | 0.02 | 0.00 | 0.65 | 99 | 1000.6 |
| 20260506162039 | 51 | 23 | 3.5 | 6.1 | 0.02 | 0.00 | 0.65 | 99 | 1000.6 |
| 20260506161039 | 51 | 18 | 3.5 | 8.7 | 0.02 | 0.00 | 0.65 | 99 | 1000.8 |
| 20260506160045 | 51 | 48 | 3.5 | 7.8 | 0.02 | 0.00 | 0.65 | 99 | 1000.8 |
| 20260506155037 | 51 | 40 | 2.6 | 6.1 | 0.01 | 0.00 | 0.64 | 99 | 1000.9 |
| 20260506154041 | 51 | 40 | 3.5 | 7.8 | 0.00 | 0.00 | 0.63 | 99 | 1000.9 |
| 20260506153037 | 51 | 72 | 2.6 | 6.1 | 0.00 | 0.00 | 0.63 | 99 | 1000.9 |
| 20260506152053 | 51 | 49 | 2.6 | 4.3 | 0.00 | 0.00 | 0.63 | 99 | 1000.9 |
| 20260506150046 | 51 | 20 | 2.6 | 5.2 | 0.01 | 0.00 | 0.63 | 99 | 1000.6 |
| 20260506145046 | 51 | 47 | 3.5 | 7.8 | 0.01 | 0.00 | 0.63 | 99 | 1000.6 |
| 20260506144040 | 51 | 44 | 4.3 | 7.8 | 0.01 | 0.00 | 0.63 | 99 | 1000.6 |
| 20260506143046 | 51 | 50 | 3.5 | 7.0 | 0.01 | 0.00 | 0.63 | 99 | 1000.6 |
| 20260506142047 | 51 | 46 | 4.3 | 7.8 | 0.01 | 0.00 | 0.63 | 99 | 1000.7 |
| 20260506141055 | 50 | 48 | 6.1 | 10.4 | 0.00 | 0.00 | 0.62 | 99 | |
| 20260506135031 | 50 | 50 | 5.2 | 8.7 | 0.00 | 0.00 | 0.62 | 99 | |
| 20260506134053 | 50 | 44 | 6.1 | 11.3 | 0.00 | 0.00 | 0.62 | 99 | |
| 20260506133046 | 50 | 44 | 5.2 | 10.4 | 0.00 | 0.00 | 0.62 | 99 | 1000.7 |
| 20260506132039 | 50 | 72 | 4.3 | 8.7 | 0.00 | 0.00 | 0.62 | 99 | 1000.7 |
| 20260506131031 | 50 | 45 | 6.1 | 10.4 | 0.01 | 0.00 | 0.62 | 99 | 1000.7 |
| 20260506130040 | 50 | 48 | 7.0 | 12.2 | 0.01 | 0.00 | 0.62 | 99 | 1000.7 |
| 20260506125047 | 50 | 41 | 5.2 | 10.4 | 0.01 | 0.00 | 0.62 | 99 | 1000.7 |
| 20260506123044 | 51 | 73 | 4.3 | 7.8 | 0.02 | 0.00 | 0.62 | 99 | 1000.7 |
| 20260506122048 | 51 | 68 | 5.2 | 10.4 | 0.02 | 0.00 | 0.62 | 99 | 1000.7 |
| 20260506121038 | 50 | 50 | 5.2 | 8.7 | 0.02 | 0.00 | 0.61 | 99 | 1000.8 |
| 20260506120049 | 50 | 40 | 3.5 | 7.8 | 0.02 | 0.00 | 0.61 | 99 | 1000.7 |
| 20260506115052 | 50 | 40 | 5.2 | 7.8 | 0.03 | 0.00 | 0.61 | 99 | 1000.6 |
| 20260506114047 | 50 | 44 | 3.5 | 7.0 | 0.03 | 0.00 | 0.61 | 99 | 1000.8 |
| 20260506113051 | 50 | 43 | 5.2 | 9.6 | 0.02 | 0.00 | 0.60 | 99 | 1000.9 |
| 20260506110055 | 49 | 49 | 3.5 | 7.8 | 0.04 | 0.00 | 0.59 | 99 | 1000.7 |
| 20260506105045 | 49 | 50 | 4.3 | 10.4 | 0.03 | 0.00 | 0.58 | 99 | 1000.7 |
| 20260506104041 | 49 | 48 | 4.3 | 8.7 | 0.03 | 0.00 | 0.58 | 99 | 1000.7 |
| 20260506103047 | 49 | 48 | 3.5 | 8.7 | 0.03 | 0.00 | 0.58 | 99 | 1000.7 |
| 20260506102050 | 48 | 39 | 3.5 | 8.7 | 0.01 | 0.00 | 0.56 | 99 | 1000.7 |
| 20260506101044 | 49 | 49 | 4.3 | 8.7 | 0.02 | 0.00 | 0.56 | 99 | 1000.8 |
| 20260506095050 | 48 | 39 | 3.5 | 8.7 | 0.01 | 0.00 | 0.55 | 99 | 1000.7 |